{"data":{"norad_id":61975,"intl_designator":"2024-210S","name":"STARLINK-32586","alt_names":[],"object_type":"PAYLOAD","status":"ACTIVE","operator":null,"country":"US","launch_date":"2024-11-14","launch_site_code":"AFETR","launch_vehicle":null,"mission":null,"orbit_class":"UNKNOWN","rcs_meters":null,"size_class":null,"mass_kg":null,"dimensions":null,"purposes":["comms"],"wikipedia_slug":null,"has_3d_model":false,"image_url":null,"decayed_at":null,"tle_current":{"epoch":"2026-09-21T02:11:34.748160Z","epoch_age_seconds":134547,"freshness":"FRESH","line1":"1 61975U 24210S   26264.09137440  .00016631  00000+0  61227-3 0  9992","line2":"2 61975  43.0056 156.3337 0001055 357.1702   2.9144 15.27593452104763","mean_motion":15.27593452,"eccentricity":0.0001055,"inclination_deg":43.0056,"raan_deg":156.3337,"arg_perigee_deg":357.1702,"mean_anomaly_deg":2.9144,"bstar":0.00061227,"rev_number":10476,"period_min":94.265918599918,"perigee_km":482.2849653243,"apogee_km":483.73266709152,"semimajor_km":6861.1458162079,"source":"CELESTRAK","updated_at":"2026-09-22T09:00:49.480157Z"}}}